SKYSAT-C11

Last updated on Tue Sep 22 2026 00:02:59 GMT+0000 (Coordinated Universal Time)

1 42987U 17068A 26264.37941797 .00026228 00000+0 28961-3 0 9997 2 42987 97.4459 57.8402 0000626 46.1162 314.0147 15.63051176498242
UTC large
Height (km)
Speed (km/s)
/
Latitude / Longitude
Inclination (degrees)
Orbital Period (minutes)
Azimuth
Elevation
Range (km)
Doppler Factor

Next 0 passes for location: London (51.5072 / 0.1276)

No passes found over London.
SKYSAT-C11